Weather History for KVTN - May, 2014

Change the Weather History Date:

Saturday, May 24, 2014

  Actual Average Record
Temperature  
Mean Temperature 70 °F 60 °F  
Max Temperature 79 °F 73 °F 96 °F (1967)
Min Temperature 61 °F 47 °F 25 °F (2002)
Degree Days  
Heating Degree Days 0 6  
Month to date heating degree days 271 225  
Since 1 July heating degree days 7244 6908  
Cooling Degree Days 5 1  
Month to date cooling degree days 13 21  
Year to date cooling degree days 13 25  
Growing Degree Days 20 (Base 50)    
Moisture  
Dew Point 58 °F    
Average Humidity 69    
Maximum Humidity 90    
Minimum Humidity 47    
Precipitation  
Precipitation 0.00 in 0.11 in 1.56 in (1916)
Month to date precipitation 1.88 2.35  
Year to date precipitation 6.08 6.38  
Snow  
Snow 0.00 in 0.00 in 0.00 in ()
Month to date snowfall 1.0 0.1  
Since 1 July snowfall 35.8 33.3  
Snow Depth 0.00 in    
Sea Level Pressure  
Sea Level Pressure 30.00 in    
Wind  
Wind Speed 13 mph (SSE)    
Max Wind Speed 23 mph    
Max Gust Speed 28 mph    
Visibility 10 miles    
Events      
T = Trace of Precipitation, MM = Missing Value Source: NWS Daily Summary

Daily Weather History Graph

Daily Weather History Graph

Search for Another Location

Airport or City:

Trip Planner

Search our weather history database for the weather conditions in past years. The results will help you decide how hot, cold, wet, or windy it might be!

Date:

Astronomy

May. 24, 2014 Rise Set
Actual Time 6:11 AM CDT 9:07 PM CDT
Civil Twilight 5:37 AM CDT 9:41 PM CDT
Nautical Twilight 4:55 AM CDT 10:23 PM CDT
Astronomical Twilight 4:05 AM CDT 11:13 PM CDT
Moon 3:47 AM CDT (5/24) 5:00 PM CDT (5/24)
Length of Visible Light 16h 03m
Length of Day
14h 56m
Waning Crescent, 18% of the Moon is Illuminated
May 24
Waning Crescent
May 28
New
Jun 5
First Quarter
Jun 12
Full
Jun 19
Last Quarter

Hourly Weather History & Observations

Time (CDT) Temp. Dew Point Humidity Pressure Visibility Wind Dir Wind Speed Gust Speed Precip Events Conditions
12:47 AM 62.6 °F 55.4 °F 77% 30.08 in 10.0 mi SSE 6.9 mph - N/A   Overcast
12:52 AM 62.6 °F 55.4 °F 77% 30.08 in 10.0 mi SSE 6.9 mph - N/A   Overcast
1:16 AM 62.1 °F 55.9 °F 80% 30.08 in 10.0 mi SE 5.8 mph - N/A   Mostly Cloudy
1:52 AM 61.0 °F 55.9 °F 83% 30.02 in 10.0 mi SSE 5.8 mph - N/A   Partly Cloudy
2:25 AM 61.0 °F 55.9 °F 83% 30.06 in 10.0 mi SE 6.9 mph - N/A   Mostly Cloudy
2:52 AM 61.0 °F 55.9 °F 83% 30.01 in 10.0 mi SE 8.1 mph - N/A   Mostly Cloudy
3:12 AM 61.0 °F 57.0 °F 87% 30.05 in 10.0 mi SE 11.5 mph - N/A   Scattered Clouds
3:34 AM 62.1 °F 57.9 °F 86% 30.06 in 10.0 mi SSE 11.5 mph - N/A   Mostly Cloudy
3:52 AM 62.1 °F 59.0 °F 90% 30.01 in 10.0 mi SSE 11.5 mph - N/A   Overcast
4:22 AM 62.1 °F 59.0 °F 90% 30.05 in 9.0 mi SSE 11.5 mph - N/A   Overcast
4:36 AM 62.1 °F 59.0 °F 90% 30.05 in 9.0 mi SSE 10.4 mph - N/A   Overcast
4:52 AM 63.0 °F 59.0 °F 87% 30.01 in 9.0 mi South 10.4 mph - N/A   Overcast
5:20 AM 63.0 °F 59.0 °F 87% 30.04 in 10.0 mi South 8.1 mph - N/A   Overcast
5:52 AM 63.0 °F 59.0 °F 87% 30.00 in 10.0 mi South 8.1 mph - N/A   Overcast
6:24 AM 63.0 °F 59.0 °F 87% 30.05 in 9.0 mi Variable 4.6 mph - N/A   Overcast
6:52 AM 63.0 °F 59.0 °F 87% 30.00 in 9.0 mi SE 8.1 mph - N/A   Overcast
7:05 AM 63.0 °F 59.0 °F 87% 30.04 in 9.0 mi SSE 9.2 mph - N/A   Overcast
7:13 AM 63.0 °F 59.0 °F 87% 30.04 in 9.0 mi SSE 12.7 mph - N/A   Overcast
7:52 AM 64.0 °F 59.0 °F 84% 29.99 in 10.0 mi SSE 12.7 mph - N/A   Overcast
8:52 AM 64.9 °F 59.0 °F 81% 29.99 in 10.0 mi South 12.7 mph - N/A   Mostly Cloudy
9:52 AM 68.0 °F 59.0 °F 73% 30.00 in 10.0 mi South 12.7 mph - N/A   Overcast
10:43 AM 68.0 °F 59.0 °F 73% 30.05 in 10.0 mi SSE 15.0 mph - N/A   Overcast
10:52 AM 68.0 °F 59.0 °F 73% 30.01 in 10.0 mi South 15.0 mph - N/A   Overcast
11:52 AM 71.1 °F 59.0 °F 66% 29.99 in 10.0 mi SSE 16.1 mph - N/A   Mostly Cloudy
12:10 PM 71.1 °F 59.0 °F 66% 30.03 in 10.0 mi South 17.3 mph - N/A   Scattered Clouds
12:32 PM 71.1 °F 59.0 °F 66% 30.03 in 10.0 mi South 19.6 mph 26.5 mph N/A   Mostly Cloudy
12:52 PM 71.1 °F 57.9 °F 63% 29.99 in 10.0 mi South 21.9 mph - N/A   Mostly Cloudy
1:18 PM 73.0 °F 57.9 °F 59% 30.02 in 10.0 mi South 18.4 mph 24.2 mph N/A   Scattered Clouds
1:52 PM 75.0 °F 59.0 °F 57% 29.96 in 10.0 mi South 19.6 mph 26.5 mph N/A   Scattered Clouds
2:52 PM 75.9 °F 57.0 °F 52% 29.94 in 10.0 mi South 15.0 mph 24.2 mph N/A   Mostly Cloudy
3:52 PM 79.0 °F 57.0 °F 47% 29.92 in 10.0 mi South 20.7 mph 26.5 mph N/A   Scattered Clouds
4:52 PM 77.0 °F 57.2 °F 50% 29.96 in 10.0 mi South 20.7 mph 27.6 mph N/A   Mostly Cloudy
5:52 PM 77.0 °F 55.9 °F 48% 29.90 in 10.0 mi South 16.1 mph - N/A   Partly Cloudy
6:52 PM 77.0 °F 55.0 °F 47% 29.88 in 10.0 mi South 11.5 mph - N/A   Clear
7:52 PM 75.0 °F 55.0 °F 50% 29.88 in 10.0 mi South 11.5 mph - N/A   Partly Cloudy
8:52 PM 71.1 °F 57.0 °F 61% 29.89 in 10.0 mi SSE 9.2 mph - N/A   Partly Cloudy
9:52 PM 66.9 °F 55.9 °F 68% 29.91 in 10.0 mi SSE 10.4 mph - N/A   Clear
10:52 PM 66.0 °F 57.0 °F 73% 29.93 in 10.0 mi SSE 9.2 mph - N/A   Partly Cloudy
11:52 PM 66.2 °F 57.2 °F 73% 29.97 in 10.0 mi South 12.7 mph - N/A   Partly Cloudy